#timestamp,LO_Frequency,Hit,StdDev 
1551772815.7,286047003.8,P
1551772835.6,286047004.1,P
1551772855.4,286047005.7,Y
1551772875.2,286046999.7,P
1551772895.1,286047000.4,N
1551772896.0,286047000.4,N
1551772915.8,286047002.7,N
1551772935.6,286046998.5,N
1551772955.5,286046998.1,N
1551772975.3,286046998.2,N
1551772995.2,286046999.2,N
1551773015.9,286046999.8,N
1551773035.7,286046999.8,N
1551773055.6,286047001.4,N
1551773075.4,286047004.7,N
1551773095.3,286047007.5,Y
1551773115.1,286047005.6,P
1551773116.0,286047005.6,N
1551773135.8,286047003.4,N
1551773155.7,286047006.0,N
1551773175.5,286047005.9,N
1551773195.4,286047005.4,N
1551773215.2,286047005.8,Y
1551773235.0,286047000.5,P
1551773235.9,286047000.5,N
1551773255.8,286046999.8,N
1551773275.6,286047002.8,N
1551773295.4,286047000.1,N
1551773315.3,286047003.9,N
1551773335.1,286047003.2,N
1551773355.9,286047006.1,Y
1551773375.7,286047005.1,P
1551773395.5,286047003.5,N
1551773415.4,286047004.4,P
1551773435.2,286047001.6,N
1551773455.1,286047001.5,N
1551773456.0,286047001.5,N
1551773475.8,286047001.5,N
1551773495.6,286047001.3,N
1551773515.5,286047001.6,N
1551773535.3,286047005.3,Y
1551773555.2,286047004.4,P
1551773575.9,286047003.7,P
1551773595.7,286047003.5,P
1551773615.6,286047003.7,Y
1551773635.4,286047001.2,P
1551773655.2,286047000.8,N
1551773675.1,286046998.2,N
1551773676.0,286046998.2,N
1551773695.8,286047000.0,N
1551773715.7,286047000.3,N
1551773735.5,286046998.5,N
1551773755.3,286047002.1,N
1551773775.2,286047001.5,N
1551773795.0,286047004.1,N
1551773795.9,286047004.1,N
1551773815.8,286047004.3,N
1551773835.6,286047003.8,N
1551773855.4,286047003.5,N
1551773875.3,286047005.9,N
1551773895.1,286047003.9,N
1551773915.8,286047002.9,N
1551773935.7,286047002.3,N
1551773955.5,286046998.8,N
1551773975.4,286046997.8,N
1551773995.2,286046994.9,N
1551774015.0,286046995.6,N
1551774015.9,286046995.6,N
1551774035.8,286046992.0,N
1551774055.6,286046994.7,N
1551774075.4,286046993.2,N
1551774095.3,286046993.2,N
1551774115.1,286046989.1,N
1551774135.9,286046990.7,N
1551774155.7,286046989.1,N
1551774175.5,286046988.8,N
1551774195.4,286046990.8,N
1551774215.2,286046990.9,N
1551774235.1,286046990.5,N
1551774236.0,286046990.5,N
1551774255.8,286046992.8,N
1551774275.6,286046994.3,N
1551774295.5,286046996.1,N
1551774315.3,286046996.7,N
1551774335.1,286046999.1,N
1551774355.9,286046998.7,N
1551774375.7,286047000.9,N
1551774395.6,286046998.6,N
1551774415.4,286047000.6,N
1551774435.2,286046998.6,N
1551774455.1,286046996.5,N
1551774456.0,286046996.5,N
1551774475.8,286046994.9,N
1551774495.7,286046996.9,N
1551774515.5,286046998.9,N
1551774535.3,286047002.7,N
1551774555.2,286047002.6,N
1551774575.9,286047003.1,N
1551774595.7,286047004.1,N
1551774615.6,286047003.8,N
1551774635.4,286047004.0,N
1551774655.3,286047001.4,N
1551774675.1,286047002.5,N
1551774676.0,286047002.5,N
1551774695.8,286046998.4,N
1551774715.7,286046997.7,N
1551774735.5,286046993.9,N
1551774755.3,286046990.4,N
1551774775.2,286046989.6,N
1551774795.0,286046985.4,Y
1551774795.9,286046985.4,P
1551774815.8,286046990.0,N
1551774835.6,286046988.3,N
1551774855.4,286046985.5,Y
1551774875.3,286046994.9,P
1551774895.1,286046997.5,N
1551774915.9,286046996.7,N
1551774935.7,286046996.6,N
1551774955.5,286046999.4,N
1551774975.4,286046999.3,N
1551774995.2,286047002.4,N
1551775015.0,286046999.8,N
1551775015.9,286046999.8,N
1551775035.8,286047002.6,N
1551775055.6,286047002.0,N
1551775075.5,286047001.4,N
1551775095.3,286047004.1,N
1551775115.1,286047005.0,N
1551775135.9,286047007.4,N
1551775155.7,286047006.9,N
1551775175.5,286047006.7,N
1551775195.4,286047006.5,N
1551775215.2,286047007.5,N
1551775235.1,286047005.6,N
1551775236.0,286047005.6,N
1551775255.8,286047004.2,N
1551775275.6,286047002.4,N
1551775295.5,286047001.0,N
1551775315.3,286047000.9,N
1551775335.2,286046999.1,N
1551775355.9,286046999.5,N
1551775375.7,286046999.6,N
1551775395.6,286046996.9,N
1551775415.4,286046997.8,N
1551775435.3,286046995.4,N
1551775455.1,286046997.8,N
1551775456.0,286046997.8,N
1551775475.8,286046996.6,N
1551775495.7,286047001.2,N
1551775515.5,286047000.6,N
1551775535.3,286047000.5,N
1551775555.2,286047001.9,N
1551775575.0,286047002.7,N
1551775575.9,286047002.7,N
1551775595.8,286047002.5,N
1551775615.6,286047002.3,N
1551775635.4,286047001.1,N
1551775655.3,286046997.8,N
1551775675.1,286046998.0,N
1551775695.9,286046999.3,N
1551775715.7,286047001.1,N
1551775735.5,286046999.8,N
1551775755.4,286047001.8,N
1551775775.2,286047003.7,N
1551775795.0,286047001.4,N
1551775795.9,286047001.4,N
1551775815.8,286047004.2,N
1551775835.6,286047004.0,N
1551775855.5,286047004.4,N
1551775875.3,286047001.4,N
1551775895.1,286047001.4,N
1551775915.9,286047004.4,N
1551775935.7,286047002.6,N
1551775955.6,286047001.7,N
1551775975.4,286047001.3,N
1551775995.2,286047003.8,N
1551776015.1,286047003.4,N
1551776016.0,286047003.4,N
1551776035.8,286047005.9,Y
1551776055.7,286047002.2,P
1551776075.5,286047002.7,P
1551776095.3,286047001.4,P
1551776115.2,286047002.9,Y
1551776135.0,286047002.3,P
1551776135.9,286047002.3,P
1551776155.8,286047000.5,P
1551776175.6,286047000.7,N
1551776195.4,286047000.3,N
1551776215.3,286047002.5,N
1551776235.1,286047004.8,Y
1551776255.9,286047004.1,P
1551776275.7,286047004.2,P
1551776295.5,286047002.9,N
1551776315.4,286047004.3,Y
1551776335.2,286047000.9,P
1551776355.0,286047001.7,N
1551776355.9,286047001.7,N
1551776375.8,286047001.6,N
1551776395.6,286047002.1,N
